Regional Weather Roundup
Issued by NWS Sterling, VA

Home | Current Version | Previous Version | Text Only | Print | Product List | Glossary On
Versions: 1 2 3 4 5 6 7 8 9 10 11 12 13 14 15 16 17 18 19 20 21 22 23 24 25 26 27 28 29 30 31 32 33 34 35 36 37 38 39 40 41 42 43 44 45
000
ASUS41 KLWX 252310
RWRLWX

REGIONAL WEATHER ROUNDUP
NATIONAL WEATHER SERVICE BALTIMORE MD/WASHINGTON DC
600 PM EST THU DEC 25 2014

Note: "FAIR" indicates few or no clouds below 12,000 feet
with no significant weather and/or obstructions to visibility.
 TC=TEMPERATURE CELSIUS

 * =Non NWS site. Station does not report precipitation (e.g. rain,
    snow, etc.), thunder, or fog.

DCZ001-MDZ009-015-VAZ040>042-051-053>054-260000-
WASHINGTON METRO

CITY           SKY/WX    TMP DP  RH WIND       PRES   REMARKS
WASHINGTON NAT CLEAR     51  29  42 CALM      30.11R
DULLES         CLEAR     44  30  57 NW8       30.12R
ANDREWS AFB    CLEAR     47  31  53 NW9       30.10R
FT BELVOIR     CLEAR     48  31  51 NW5       30.11R
QUANTICO       CLEAR     45  36  70 NW6       30.12R
COLLEGE PARK*  CLEAR     48  32  53 W8        30.10R
LEESBURG*      CLEAR     45  34  65 NW12G17   30.12R
MANASSAS*      CLEAR     46  32  57 N6        30.11R
GAITHERSBURG*  CLEAR     45  28  53 W7        30.14R

$$

MDZ006>007-011-014-260000-
BALTIMORE METRO

CITY           SKY/WX    TMP DP  RH WIND       PRES   REMARKS
BWI AIRPORT    PTCLDY    46  29  51 W3        30.10R
MD SCIENCE CTR   N/A     48  30  49 MISG      30.09R
ANNAPOLIS      CLEAR     49  29  46 W7        30.11R
FORT MEADE*    CLEAR     45  32  61 W6        30.12R

$$

MDZ012-015-019>023-260000-
MARYLAND EASTERN SHORE

CITY           SKY/WX    TMP DP  RH WIND       PRES   REMARKS
OCEAN CITY     CLEAR     47  32  56 NW6       30.09R
SALISBURY      CLEAR     45  35  68 SW3       30.10R
BAY BRIDGE AP*   N/A     46  32  57 W9        30.10R
CAMBRIDGE*     CLEAR     50  32  50 NW3       30.09S
EASTON*        CLEAR     48  36  61 CALM      30.14R

$$

MDZ017>025-260000-
SOUTHERN MARYLAND

CITY           SKY/WX    TMP DP  RH WIND       PRES   REMARKS
PATUXENT RIVER CLEAR     45  32  60 NW3       30.10R
ST INIGOES     CLEAR     43  34  70 CALM      30.10R
LEONARDTOWN*   CLEAR     43  32  65 CALM      30.12R

$$

MDZ003>005-260000-
NORTH CENTRAL MARYLAND

CITY           SKY/WX    TMP DP  RH WIND       PRES   REMARKS
FREDERICK*     MOCLDY    46  28  49 NW7       30.13R
HAGERSTOWN APT PTCLDY    41  28  60 NW7       30.11R
WESTMINSTER*   PTCLDY    43  32  65 NW12G17   30.09R

$$

MDZ501>502-260000-
WESTERN MARYLAND

CITY           SKY/WX    TMP DP  RH WIND       PRES   REMARKS
OAKLAND*       CLOUDY    32 N/A N/A W10G16    30.07R WCI  24
CUMBERLAND*    CLOUDY    45  30  57 W7        30.17R

$$

VAZ025>031-260000-
SHENANDOAH VALLEY

CITY           SKY/WX    TMP DP  RH WIND       PRES   REMARKS
WINCHESTER*    CLEAR     43  27  52 W9        30.11R
FRONT ROYAL*   FAIR      43  30  61 CALM      30.10R
LURAY*         FAIR      45  32  61 SW5       30.10R
NEW MARKET*    FAIR      39  30  70 W3        30.10R
STAUNTON*      CLEAR     41  29  61 CALM      30.12R
WAYNESBORO*    FAIR      40  28  63 W6        30.10R

$$

WVZ021-048>050-054>055-260000-
EASTERN WEST VIRGINIA PANHANDLE

CITY           SKY/WX    TMP DP  RH WIND       PRES   REMARKS
MARTINSBURG    MOCLDY    45  28  51 W7        30.12R
PETERSBURG*    PTCLDY    41  27  58 CALM      30.14R

$$

VAZ036>039-050-260000-
CENTRAL FOOTHILLS

CITY           SKY/WX    TMP DP  RH WIND       PRES   REMARKS
CHARLOTTESVILL CLEAR     47  29  49 CALM      30.10R
CULPEPER*      CLEAR     46  30  53 NW3       30.10R
ORANGE*        CLEAR     46  32  57 CALM      30.11R
GORDONSVILLE*  FAIR      40  34  77 CALM      30.10R
WARRENTON*     FAIR      42  35  74 N8        30.09R

$$

VAZ055>057-260000-
NORTH AND CENTRAL PIEDMONT

CITY           SKY/WX    TMP DP  RH WIND       PRES   REMARKS
FREDERICKSBRG* CLEAR     46  36  69 CALM      30.10R
STAFFORD*      CLEAR     42  32  67 CALM      30.14R

$$

NCZ024-NYZ072-PAZ021-071-VAZ022-071-260000-
OTHER REGIONAL OBSERVATIONS

CITY           SKY/WX    TMP DP  RH WIND       PRES   REMARKS
NEW YORK CITY  PTCLDY    49  28  44 W12G24    29.98R
PHILADELPHIA   PTCLDY    50  29  44 W14       30.06R
PITTSBURGH     CLOUDY    38  28  67 W6        30.13R
ROANOKE        CLEAR     41  28  60 W6        30.17R
RICHMOND       CLEAR     53  31  42 W3        30.11R
RALEIGH        CLEAR     48  33  56 CALM      30.16R

$$

ANZ530>537-260000-
MARINE OBSERVATIONS

STATION/POSITION TIME  TEMP    WIND        PRES
                       AIR SEA DIR/SP/G
                 (UTC) (F)     (DEG/KT/KT) (MB)
THOMAS PT LIGHT  2300   50 43  310/ 12/ 13 1020.3R
BALT KEY BRIDGE  2300   49     270/  8/  9 1018.7R
COVE POINT       2300   51     310/  2/  3 1019.1R
LEWISETTA        2300   46 44     CALM     1019.1R
SOLOMONS ISLAND  2300      44                N/A
PINEY POINT      2300           CALM  /  1   N/A

$$




USA.gov is the U.S. government's official web portal to all federal, state and local government web resources and services.